# Site = WSO
# Longtitude = 123.123
# Latitude = 234.244
#
# UTC_Offset = 16
# TimeZone = Pacific Standard Time
#
# UTC_StartTime = 2009-02-11 00:00:00
# StationID = NAA
# Frequency = 24000
# MonitorID = SuperSID-001
# SampleRate =  5
2009-02-11 00:00:00, 9942.46608485
2009-02-11 00:00:05, 9979.10800952
2009-02-11 00:00:10, 10015.7499342
2009-02-11 00:00:15, 10040.9987284
2009-02-11 00:00:20, 10066.2475225
2009-02-11 00:00:25, 10091.4963167
2009-02-11 00:00:30, 10104.3510131
2009-02-11 00:00:35, 10117.2057095
2009-02-11 00:00:40, 10130.0604059
2009-02-11 00:00:45, 10142.9151022
2009-02-11 00:00:50, 10152.7370007
2009-02-11 00:00:55, 10162.5588992
2009-02-11 00:01:00, 10172.3807976
2009-02-11 00:01:05, 10182.2026961
2009-02-11 00:01:10, 10155.3826699
2009-02-11 00:01:15, 10128.5626436
2009-02-11 00:01:20, 10113.1357479
2009-02-11 00:01:25, 10097.7088522
2009-02-11 00:01:30, 10082.2819565
2009-02-11 00:01:35, 10079.2491585
2009-02-11 00:01:40, 10076.2163606
2009-02-11 00:01:45, 10073.1835627
2009-02-11 00:01:50, 10070.9748246
2009-02-11 00:01:55, 10071.7988844
2009-02-11 00:02:00, 10069.1811012
2009-02-11 00:02:05, 10066.563318
2009-02-11 00:02:10, 10063.9455349
2009-02-11 00:02:15, 10061.3277517
2009-02-11 00:02:20, 10058.7099685
2009-02-11 00:02:25, 10056.0921854
2009-02-11 00:02:30, 10053.4744022
2009-02-11 00:02:35, 10050.856619
2009-02-11 00:02:40, 10048.2388358
2009-02-11 00:02:45, 10045.6210527
2009-02-11 00:02:50, 10043.0032695
2009-02-11 00:02:55, 10039.5614265
2009-02-11 00:03:00, 10062.6391992
2009-02-11 00:03:05, 10089.1588149
2009-02-11 00:03:10, 10115.6784305
2009-02-11 00:03:15, 10128.9591306
2009-02-11 00:03:20, 10142.2398307
2009-02-11 00:03:25, 10155.5205307
2009-02-11 00:03:30, 10158.3799387
2009-02-11 00:03:35, 10161.2393467
2009-02-11 00:03:40, 10164.0987546
2009-02-11 00:03:45, 10166.9581626
2009-02-11 00:03:50, 10169.8175706
2009-02-11 00:03:55, 10172.6769785
2009-02-11 00:04:00, 10175.5363865
2009-02-11 00:04:05, 10151.8761788
2009-02-11 00:04:10, 10128.2159711
2009-02-11 00:04:15, 10104.5557634
2009-02-11 00:04:20, 10094.1344713
2009-02-11 00:04:25, 10083.7131792
2009-02-11 00:04:30, 10086.6364547
2009-02-11 00:04:35, 10099.9810224
2009-02-11 00:04:40, 10113.32559
2009-02-11 00:04:45, 10126.6701577
2009-02-11 00:04:50, 10140.0147253
2009-02-11 00:04:55, 10153.359293
2009-02-11 00:05:00, 10151.2174822
2009-02-11 00:05:05, 10149.0756715
2009-02-11 00:05:10, 10146.9338607
2009-02-11 00:05:15, 10144.7920499
2009-02-11 00:05:20, 10142.6502392
2009-02-11 00:05:25, 10140.5084284
2009-02-11 00:05:30, 10138.3666176
2009-02-11 00:05:35, 10122.8802392
2009-02-11 00:05:40, 10107.3938608
2009-02-11 00:05:45, 10091.9074824
2009-02-11 00:05:50, 10076.421104
2009-02-11 00:05:55, 10035.4885376
2009-02-11 00:06:00, 9994.55597129
2009-02-11 00:06:05, 9969.10978338
2009-02-11 00:06:10, 9943.66359547
2009-02-11 00:06:15, 9918.21740755
2009-02-11 00:06:20, 9892.77121964
2009-02-11 00:06:25, 9867.32503172
2009-02-11 00:06:30, 9841.87884381
2009-02-11 00:06:35, 9816.4326559
2009-02-11 00:06:40, 9790.98646798
2009-02-11 00:06:45, 9765.54028007
2009-02-11 00:06:50, 9740.09409215
2009-02-11 00:06:55, 9750.98331116
2009-02-11 00:07:00, 9787.31871809
2009-02-11 00:07:05, 9823.65412501
2009-02-11 00:07:10, 9861.88156363
2009-02-11 00:07:15, 9900.10900225
2009-02-11 00:07:20, 9938.33644088
2009-02-11 00:07:25, 9976.5638795
2009-02-11 00:07:30, 10017.7927401
2009-02-11 00:07:35, 10059.0216007
2009-02-11 00:07:40, 10076.46408
2009-02-11 00:07:45, 10093.9065593
2009-02-11 00:07:50, 10111.3490386
2009-02-11 00:07:55, 10128.7915178
2009-02-11 00:08:00, 10109.8985902
2009-02-11 00:08:05, 10091.0056626
2009-02-11 00:08:10, 10072.1127349
2009-02-11 00:08:15, 10051.3277756
2009-02-11 00:08:20, 10030.5428162
2009-02-11 00:08:25, 10009.7578569
2009-02-11 00:08:30, 9988.97289755
2009-02-11 00:08:35, 9965.18651621
2009-02-11 00:08:40, 9951.40074315
2009-02-11 00:08:45, 9961.40135143
2009-02-11 00:08:50, 9971.4019597
2009-02-11 00:08:55, 9981.40256798
2009-02-11 00:09:00, 9991.40317626
2009-02-11 00:09:05, 10001.4037845
2009-02-11 00:09:10, 10011.4043928
2009-02-11 00:09:15, 10030.0377467
2009-02-11 00:09:20, 10048.6711007
2009-02-11 00:09:25, 10067.3044546
2009-02-11 00:09:30, 10085.9378085
2009-02-11 00:09:35, 10104.5711625
2009-02-11 00:09:40, 10123.2045164
2009-02-11 00:09:45, 10111.1136943
2009-02-11 00:09:50, 10099.0228723
2009-02-11 00:09:55, 10086.9320502
2009-02-11 00:10:00, 10074.8412281
2009-02-11 00:10:05, 10062.7504061
2009-02-11 00:10:10, 10050.659584
2009-02-11 00:10:15, 10038.5687619
2009-02-11 00:10:20, 10017.8451942
2009-02-11 00:10:25, 9997.12162649
2009-02-11 00:10:30, 9976.39805877
2009-02-11 00:10:35, 9955.67449105
2009-02-11 00:10:40, 9934.95092332
2009-02-11 00:10:45, 9930.9123803
2009-02-11 00:10:50, 9947.59740501
2009-02-11 00:10:55, 9964.28242971
2009-02-11 00:11:00, 9980.96745441
2009-02-11 00:11:05, 9997.65247912
2009-02-11 00:11:10, 10014.3375038
2009-02-11 00:11:15, 10024.9933741
2009-02-11 00:11:20, 10035.6492445
2009-02-11 00:11:25, 10046.3051148
2009-02-11 00:11:30, 10056.9609851
2009-02-11 00:11:35, 10067.6168554
2009-02-11 00:11:40, 10078.2727258
2009-02-11 00:11:45, 10088.9285961
2009-02-11 00:11:50, 10082.8994417
2009-02-11 00:11:55, 10076.8702873
2009-02-11 00:12:00, 10070.841133
2009-02-11 00:12:05, 10056.687775
2009-02-11 00:12:10, 10042.534417
2009-02-11 00:12:15, 10028.3810591
2009-02-11 00:12:20, 10020.2568555
2009-02-11 00:12:25, 10012.1326519
2009-02-11 00:12:30, 10004.0084483
2009-02-11 00:12:35, 9995.8842447
2009-02-11 00:12:40, 9987.76004112
2009-02-11 00:12:45, 9979.63583753
2009-02-11 00:12:50, 9971.51163394
2009-02-11 00:12:55, 9963.38743035
2009-02-11 00:13:00, 9955.26322676
2009-02-11 00:13:05, 9962.70309319
2009-02-11 00:13:10, 9978.26716321
2009-02-11 00:13:15, 9993.83123323
2009-02-11 00:13:20, 10009.3953032
2009-02-11 00:13:25, 10047.4948181
2009-02-11 00:13:30, 10085.594333
2009-02-11 00:13:35, 10123.6938479
2009-02-11 00:13:40, 10163.7140919
2009-02-11 00:13:45, 10203.7343359
2009-02-11 00:13:50, 10242.2877167
2009-02-11 00:13:55, 10280.8410975
2009-02-11 00:14:00, 10319.3944783
2009-02-11 00:14:05, 10357.9478592
2009-02-11 00:14:10, 10380.93717
2009-02-11 00:14:15, 10403.9264808
2009-02-11 00:14:20, 10426.9157916
2009-02-11 00:14:25, 10449.9051024
2009-02-11 00:14:30, 10450.3589683
2009-02-11 00:14:35, 10450.8128343
2009-02-11 00:14:40, 10451.2667002
2009-02-11 00:14:45, 10449.799837
2009-02-11 00:14:50, 10448.8129895
2009-02-11 00:14:55, 10457.0886007
2009-02-11 00:15:00, 10465.3642119
2009-02-11 00:15:05, 10473.6398231
2009-02-11 00:15:10, 10491.875481
2009-02-11 00:15:15, 10510.111139
2009-02-11 00:15:20, 10528.346797
2009-02-11 00:15:25, 10546.5824549
2009-02-11 00:15:30, 10564.8181129
2009-02-11 00:15:35, 10583.0537708
2009-02-11 00:15:40, 10601.2894288
2009-02-11 00:15:45, 10619.5250867
2009-02-11 00:15:50, 10637.7607447
2009-02-11 00:15:55, 10655.516387
2009-02-11 00:16:00, 10673.1862993
2009-02-11 00:16:05, 10690.8562117
2009-02-11 00:16:10, 10708.526124
2009-02-11 00:16:15, 10716.2359896
2009-02-11 00:16:20, 10732.4343812
2009-02-11 00:16:25, 10748.6327728
2009-02-11 00:16:30, 10759.220932
2009-02-11 00:16:35, 10758.0208064
2009-02-11 00:16:40, 10756.8206809
2009-02-11 00:16:45, 10755.6205553
2009-02-11 00:16:50, 10754.4204297
2009-02-11 00:16:55, 10753.2203042
2009-02-11 00:17:00, 10752.0201786
2009-02-11 00:17:05, 10743.1101874
2009-02-11 00:17:10, 10734.2001963
2009-02-11 00:17:15, 10725.2902051
2009-02-11 00:17:20, 10716.380214
2009-02-11 00:17:25, 10698.9816968
2009-02-11 00:17:30, 10681.5831796
2009-02-11 00:17:35, 10685.39508
2009-02-11 00:17:40, 10700.9952652
2009-02-11 00:17:45, 10716.5954504
2009-02-11 00:17:50, 10732.1956356
2009-02-11 00:17:55, 10747.7958208
2009-02-11 00:18:00, 10763.396006
2009-02-11 00:18:05, 10778.9961912
2009-02-11 00:18:10, 10806.1381377
2009-02-11 00:18:15, 10833.2800842
2009-02-11 00:18:20, 10866.116677
2009-02-11 00:18:25, 10898.9532698
2009-02-11 00:18:30, 10931.7898626
2009-02-11 00:18:35, 10964.6264554
2009-02-11 00:18:40, 10981.862863
2009-02-11 00:18:45, 11001.4414463
2009-02-11 00:18:50, 11021.0200296
2009-02-11 00:18:55, 11040.5986128
2009-02-11 00:19:00, 11070.0001116
2009-02-11 00:19:05, 11099.4016104
2009-02-11 00:19:10, 11128.8031092
2009-02-11 00:19:15, 11146.6628467
2009-02-11 00:19:20, 11193.9434051
2009-02-11 00:19:25, 11235.5293173
2009-02-11 00:19:30, 11277.1152294
2009-02-11 00:19:35, 11320.3567438
2009-02-11 00:19:40, 11363.5982581
2009-02-11 00:19:45, 11406.8397725
2009-02-11 00:19:50, 11440.8571311
2009-02-11 00:19:55, 11474.8744898
2009-02-11 00:20:00, 11508.8918485
2009-02-11 00:20:05, 11521.0056699
2009-02-11 00:20:10, 11533.1194913
2009-02-11 00:20:15, 11545.2333127
2009-02-11 00:20:20, 11557.3471341
2009-02-11 00:20:25, 11540.0401346
2009-02-11 00:20:30, 11522.733135
2009-02-11 00:20:35, 11505.4261355
2009-02-11 00:20:40, 11486.4635337
2009-02-11 00:20:45, 11467.500932
2009-02-11 00:20:50, 11448.5383303
2009-02-11 00:20:55, 11436.4577085
2009-02-11 00:21:00, 11423.4461776
2009-02-11 00:21:05, 11410.4346467
2009-02-11 00:21:10, 11409.5037375
2009-02-11 00:21:15, 11402.9000389
2009-02-11 00:21:20, 11396.2963403
2009-02-11 00:21:25, 11389.6926416
2009-02-11 00:21:30, 11383.088943
2009-02-11 00:21:35, 11354.9672807
2009-02-11 00:21:40, 11326.8456184
2009-02-11 00:21:45, 11298.7239562
2009-02-11 00:21:50, 11270.6022939
2009-02-11 00:21:55, 11242.4806316
2009-02-11 00:22:00, 11214.3589693
2009-02-11 00:22:05, 11187.1682162
2009-02-11 00:22:10, 11144.5062665
2009-02-11 00:22:15, 11101.8443168
2009-02-11 00:22:20, 11064.8551565
2009-02-11 00:22:25, 11027.8659963
2009-02-11 00:22:30, 10982.3805807
2009-02-11 00:22:35, 10936.8951651
2009-02-11 00:22:40, 10912.9277132
2009-02-11 00:22:45, 10886.8751006
2009-02-11 00:22:50, 10860.8224881
2009-02-11 00:22:55, 10834.7698755
2009-02-11 00:23:00, 10808.7172629
2009-02-11 00:23:05, 10780.0194877
2009-02-11 00:23:10, 10751.3217126
2009-02-11 00:23:15, 10738.095134
2009-02-11 00:23:20, 10724.8685555
2009-02-11 00:23:25, 10711.6419769
2009-02-11 00:23:30, 10698.4153984
2009-02-11 00:23:35, 10693.6850751
2009-02-11 00:23:40, 10688.9547519
2009-02-11 00:23:45, 10684.2244286
2009-02-11 00:23:50, 10681.579266
2009-02-11 00:23:55, 10678.9341034
2009-02-11 00:24:00, 10676.2889408
2009-02-11 00:24:05, 10688.6095468
2009-02-11 00:24:10, 10703.5753154
2009-02-11 00:24:15, 10718.541084
2009-02-11 00:24:20, 10733.5068526
2009-02-11 00:24:25, 10748.4726212
2009-02-11 00:24:30, 10763.4383898
2009-02-11 00:24:35, 10778.4041584
2009-02-11 00:24:40, 10808.3507678
2009-02-11 00:24:45, 10837.5019957
2009-02-11 00:24:50, 10852.5698031
2009-02-11 00:24:55, 10867.6376105
2009-02-11 00:25:00, 10882.7054178
2009-02-11 00:25:05, 10897.7732252
2009-02-11 00:25:10, 10897.8752639
2009-02-11 00:25:15, 10897.9773027
2009-02-11 00:25:20, 10898.0793414
2009-02-11 00:25:25, 10898.1813802
2009-02-11 00:25:30, 10898.283419
2009-02-11 00:25:35, 10898.3854577
2009-02-11 00:25:40, 10898.4874965
2009-02-11 00:25:45, 10883.6086945
2009-02-11 00:25:50, 10887.7204562
2009-02-11 00:25:55, 10905.9156386
2009-02-11 00:26:00, 10924.110821
2009-02-11 00:26:05, 10942.3060034
2009-02-11 00:26:10, 10960.5011857
2009-02-11 00:26:15, 10978.6963681
2009-02-11 00:26:20, 10996.8915505
2009-02-11 00:26:25, 11019.7055517
2009-02-11 00:26:30, 11042.5195528
2009-02-11 00:26:35, 11065.333554
2009-02-11 00:26:40, 11088.1475551
2009-02-11 00:26:45, 11126.8684048
2009-02-11 00:26:50, 11165.5892545
2009-02-11 00:26:55, 11187.2152449
2009-02-11 00:27:00, 11208.8412354
2009-02-11 00:27:05, 11230.4672258
2009-02-11 00:27:10, 11245.5747587
2009-02-11 00:27:15, 11260.6822916
2009-02-11 00:27:20, 11275.7898245
2009-02-11 00:27:25, 11290.8973574
2009-02-11 00:27:30, 11301.3860716
2009-02-11 00:27:35, 11311.8747857
2009-02-11 00:27:40, 11322.3634998
2009-02-11 00:27:45, 11332.8522139
2009-02-11 00:27:50, 11327.4340795
2009-02-11 00:27:55, 11322.0159451
2009-02-11 00:28:00, 11315.4974876
2009-02-11 00:28:05, 11308.97903
2009-02-11 00:28:10, 11303.4775669
2009-02-11 00:28:15, 11304.4945613
2009-02-11 00:28:20, 11305.5115556
2009-02-11 00:28:25, 11306.52855
2009-02-11 00:28:30, 11307.5455444
2009-02-11 00:28:35, 11308.5625388
2009-02-11 00:28:40, 11309.5795332
2009-02-11 00:28:45, 11314.202277
2009-02-11 00:28:50, 11333.8644565
2009-02-11 00:28:55, 11353.526636
2009-02-11 00:29:00, 11350.5888593
2009-02-11 00:29:05, 11347.6510826
2009-02-11 00:29:10, 11344.713306
2009-02-11 00:29:15, 11340.7585349
2009-02-11 00:29:20, 11336.8037639
2009-02-11 00:29:25, 11332.8489928
2009-02-11 00:29:30, 11328.8942218
2009-02-11 00:29:35, 11324.9394507
2009-02-11 00:29:40, 11320.9846797
2009-02-11 00:29:45, 11317.0299087
2009-02-11 00:29:50, 11309.4693881
2009-02-11 00:29:55, 11286.869432
2009-02-11 00:30:00, 11283.8123529
2009-02-11 00:30:05, 11303.3552299
2009-02-11 00:30:10, 11308.5931599
2009-02-11 00:30:15, 11313.8310899
2009-02-11 00:30:20, 11319.0690199
2009-02-11 00:30:25, 11324.3069499
2009-02-11 00:30:30, 11329.54488
2009-02-11 00:30:35, 11334.78281
2009-02-11 00:30:40, 11340.02074
2009-02-11 00:30:45, 11345.25867
2009-02-11 00:30:50, 11350.4966
2009-02-11 00:30:55, 11355.73453
2009-02-11 00:31:00, 11360.97246
2009-02-11 00:31:05, 11346.6675129
2009-02-11 00:31:10, 11336.4585927
2009-02-11 00:31:15, 11340.5546196
2009-02-11 00:31:20, 11344.6506464
2009-02-11 00:31:25, 11348.7466733
2009-02-11 00:31:30, 11364.7733258
2009-02-11 00:31:35, 11380.7999783
2009-02-11 00:31:40, 11396.8266309
2009-02-11 00:31:45, 11412.8532834
2009-02-11 00:31:50, 11428.8799359
2009-02-11 00:31:55, 11444.9065884
2009-02-11 00:32:00, 11460.933241
2009-02-11 00:32:05, 11486.550294
2009-02-11 00:32:10, 11512.167347
2009-02-11 00:32:15, 11533.6883732
2009-02-11 00:32:20, 11555.2093994
2009-02-11 00:32:25, 11576.7304256
2009-02-11 00:32:30, 11598.2514518
2009-02-11 00:32:35, 11604.9715507
2009-02-11 00:32:40, 11611.6916497
2009-02-11 00:32:45, 11618.4117486
2009-02-11 00:32:50, 11620.2485976
2009-02-11 00:32:55, 11622.0854466
2009-02-11 00:33:00, 11623.9222956
2009-02-11 00:33:05, 11625.7591446
2009-02-11 00:33:10, 11616.3679291
2009-02-11 00:33:15, 11606.9767136
2009-02-11 00:33:20, 11597.5854981
2009-02-11 00:33:25, 11588.1942826
2009-02-11 00:33:30, 11578.8030671
2009-02-11 00:33:35, 11569.4118516
2009-02-11 00:33:40, 11562.8909377
2009-02-11 00:33:45, 11556.3700238
2009-02-11 00:33:50, 11549.8491098
2009-02-11 00:33:55, 11548.2114458
2009-02-11 00:34:00, 11546.5737819
2009-02-11 00:34:05, 11544.9361179
2009-02-11 00:34:10, 11560.5975354
2009-02-11 00:34:15, 11577.8966169
2009-02-11 00:34:20, 11571.8185487
2009-02-11 00:34:25, 11565.7404804
2009-02-11 00:34:30, 11559.6624122
2009-02-11 00:34:35, 11553.584344
2009-02-11 00:34:40, 11547.5062757
2009-02-11 00:34:45, 11541.4282075
2009-02-11 00:34:50, 11535.3501393
2009-02-11 00:34:55, 11529.272071
2009-02-11 00:35:00, 11523.1940028
2009-02-11 00:35:05, 11517.1159346
2009-02-11 00:35:10, 11511.0378664
2009-02-11 00:35:15, 11487.6607166
2009-02-11 00:35:20, 11484.8018916
2009-02-11 00:35:25, 11505.3202163
2009-02-11 00:35:30, 11501.0519346
2009-02-11 00:35:35, 11496.7836528
2009-02-11 00:35:40, 11492.515371
2009-02-11 00:35:45, 11488.2470892
2009-02-11 00:35:50, 11480.5003934
2009-02-11 00:35:55, 11472.7536976
2009-02-11 00:36:00, 11465.0070018
2009-02-11 00:36:05, 11438.1386762
2009-02-11 00:36:10, 11411.2703505
2009-02-11 00:36:15, 11384.4020249
2009-02-11 00:36:20, 11357.5336992
2009-02-11 00:36:25, 11289.6810057
2009-02-11 00:36:30, 11221.8283122
2009-02-11 00:36:35, 11178.7622252
2009-02-11 00:36:40, 11123.850032
2009-02-11 00:36:45, 11068.9378388
2009-02-11 00:36:50, 11014.0256456
2009-02-11 00:36:55, 10962.5918664
2009-02-11 00:37:00, 10897.5792668
2009-02-11 00:37:05, 10832.5666671
2009-02-11 00:37:10, 10786.6756973
2009-02-11 00:37:15, 10740.7847275
2009-02-11 00:37:20, 10694.8937577
2009-02-11 00:37:25, 10649.0027879
2009-02-11 00:37:30, 10623.5778612
2009-02-11 00:37:35, 10598.1529345
2009-02-11 00:37:40, 10572.7280078
2009-02-11 00:37:45, 10554.9985009
2009-02-11 00:37:50, 10537.2689939
2009-02-11 00:37:55, 10482.3940016
2009-02-11 00:38:00, 10427.5190092
2009-02-11 00:38:05, 10386.2228373
2009-02-11 00:38:10, 10344.9266654
2009-02-11 00:38:15, 10303.6304936
2009-02-11 00:38:20, 10262.3343217
2009-02-11 00:38:25, 10221.0381498
2009-02-11 00:38:30, 10179.7419779
2009-02-11 00:38:35, 10138.445806
2009-02-11 00:38:40, 10097.1496341
2009-02-11 00:38:45, 10055.8534622
2009-02-11 00:38:50, 10018.7079769
2009-02-11 00:38:55, 10010.3555591
2009-02-11 00:39:00, 10039.1486266
2009-02-11 00:39:05, 10056.7654045
2009-02-11 00:39:10, 10074.3821823
2009-02-11 00:39:15, 10091.9989602
2009-02-11 00:39:20, 10109.615738
2009-02-11 00:39:25, 10127.2325158
2009-02-11 00:39:30, 10144.8492937
2009-02-11 00:39:35, 10162.4660715
2009-02-11 00:39:40, 10180.0828494
2009-02-11 00:39:45, 10197.6996272
2009-02-11 00:39:50, 10215.3164051
2009-02-11 00:39:55, 10232.9331829
2009-02-11 00:40:00, 10221.7568932
2009-02-11 00:40:05, 10244.2594888
2009-02-11 00:40:10, 10277.9383742
2009-02-11 00:40:15, 10311.6172596
2009-02-11 00:40:20, 10363.9701023
2009-02-11 00:40:25, 10416.322945
2009-02-11 00:40:30, 10468.6757877
2009-02-11 00:40:35, 10521.0286305
2009-02-11 00:40:40, 10573.3814732
2009-02-11 00:40:45, 10620.7030029
2009-02-11 00:40:50, 10666.392343
2009-02-11 00:40:55, 10712.0816831
2009-02-11 00:41:00, 10757.7710232
2009-02-11 00:41:05, 10803.4603633
2009-02-11 00:41:10, 10810.011919
2009-02-11 00:41:15, 10816.5634747
2009-02-11 00:41:20, 10823.1150304
2009-02-11 00:41:25, 10805.8766913
2009-02-11 00:41:30, 10788.6383522
2009-02-11 00:41:35, 10771.4000131
2009-02-11 00:41:40, 10754.1616741
2009-02-11 00:41:45, 10736.923335
2009-02-11 00:41:50, 10724.7163089
2009-02-11 00:41:55, 10714.1414724
2009-02-11 00:42:00, 10703.5666359
2009-02-11 00:42:05, 10692.9917994
2009-02-11 00:42:10, 10682.4169629
2009-02-11 00:42:15, 10677.3010255
2009-02-11 00:42:20, 10658.7113131
2009-02-11 00:42:25, 10640.1216007
2009-02-11 00:42:30, 10626.6478257
2009-02-11 00:42:35, 10613.1740508
2009-02-11 00:42:40, 10599.7002758
2009-02-11 00:42:45, 10586.2265008
2009-02-11 00:42:50, 10572.7527259
2009-02-11 00:42:55, 10559.2789509
2009-02-11 00:43:00, 10545.8051759
2009-02-11 00:43:05, 10532.3314009
2009-02-11 00:43:10, 10518.857626
2009-02-11 00:43:15, 10481.9309389
2009-02-11 00:43:20, 10445.0042519
2009-02-11 00:43:25, 10421.5513398
2009-02-11 00:43:30, 10395.7045004
2009-02-11 00:43:35, 10369.8576611
2009-02-11 00:43:40, 10344.0108218
2009-02-11 00:43:45, 10318.1639825
2009-02-11 00:43:50, 10279.4638677
2009-02-11 00:43:55, 10240.7637529
2009-02-11 00:44:00, 10202.0636381
2009-02-11 00:44:05, 10163.3635233
2009-02-11 00:44:10, 10124.6634086
2009-02-11 00:44:15, 10085.9632938
2009-02-11 00:44:20, 10047.9086751
2009-02-11 00:44:25, 9985.54888675
2009-02-11 00:44:30, 9923.18909837
2009-02-11 00:44:35, 9863.22323723
2009-02-11 00:44:40, 9798.66898783
2009-02-11 00:44:45, 9734.11473844
2009-02-11 00:44:50, 9669.56048904
2009-02-11 00:44:55, 9617.85951511
2009-02-11 00:45:00, 9566.15854118
2009-02-11 00:45:05, 9514.45756725
2009-02-11 00:45:10, 9462.75659331
2009-02-11 00:45:15, 9411.05561938
2009-02-11 00:45:20, 9359.35464545
2009-02-11 00:45:25, 9330.46108747
2009-02-11 00:45:30, 9325.87269922
2009-02-11 00:45:35, 9321.28431098
2009-02-11 00:45:40, 9318.5417779
2009-02-11 00:45:45, 9320.38763307
2009-02-11 00:45:50, 9322.23348824
2009-02-11 00:45:55, 9314.56433288
2009-02-11 00:46:00, 9306.89517752
2009-02-11 00:46:05, 9299.22602216
2009-02-11 00:46:10, 9291.5568668
2009-02-11 00:46:15, 9283.88771144
2009-02-11 00:46:20, 9276.21855608
2009-02-11 00:46:25, 9248.041221
2009-02-11 00:46:30, 9205.95182649
2009-02-11 00:46:35, 9163.86243198
2009-02-11 00:46:40, 9121.77303747
2009-02-11 00:46:45, 9077.83778779
2009-02-11 00:46:50, 9033.90253811
2009-02-11 00:46:55, 8989.96728843
2009-02-11 00:47:00, 8944.61078537
2009-02-11 00:47:05, 8899.25428231
2009-02-11 00:47:10, 8853.89777925
2009-02-11 00:47:15, 8808.54127619
2009-02-11 00:47:20, 8763.18477313
2009-02-11 00:47:25, 8717.82827007
2009-02-11 00:47:30, 8692.97994673
2009-02-11 00:47:35, 8682.04368282
2009-02-11 00:47:40, 8655.03640877
2009-02-11 00:47:45, 8628.02913472
2009-02-11 00:47:50, 8601.02186066
2009-02-11 00:47:55, 8574.01458661
2009-02-11 00:48:00, 8547.00731256
2009-02-11 00:48:05, 8530.93630241
2009-02-11 00:48:10, 8514.86529227
2009-02-11 00:48:15, 8498.79428212
2009-02-11 00:48:20, 8482.72327198
2009-02-11 00:48:25, 8466.65226183
2009-02-11 00:48:30, 8450.58125169
2009-02-11 00:48:35, 8434.51024154
2009-02-11 00:48:40, 8427.43801877
2009-02-11 00:48:45, 8436.43680615
2009-02-11 00:48:50, 8445.43559353
2009-02-11 00:48:55, 8454.43438091
2009-02-11 00:49:00, 8463.43316828
2009-02-11 00:49:05, 8472.43195566
2009-02-11 00:49:10, 8481.43074304
2009-02-11 00:49:15, 8490.42953041
2009-02-11 00:49:20, 8499.42831779
2009-02-11 00:49:25, 8508.42710517
2009-02-11 00:49:30, 8517.42589255
2009-02-11 00:49:35, 8561.24845391
2009-02-11 00:49:40, 8605.07101527
2009-02-11 00:49:45, 8639.89478925
2009-02-11 00:49:50, 8674.71856324
2009-02-11 00:49:55, 8709.54233722
2009-02-11 00:50:00, 8744.3661112
2009-02-11 00:50:05, 8779.18988519
2009-02-11 00:50:10, 8851.96517377
2009-02-11 00:50:15, 8924.74046235
2009-02-11 00:50:20, 9002.26361165
2009-02-11 00:50:25, 9079.78676095
2009-02-11 00:50:30, 9157.30991026
2009-02-11 00:50:35, 9234.83305956
2009-02-11 00:50:40, 9290.12067942
2009-02-11 00:50:45, 9360.92431223
2009-02-11 00:50:50, 9431.72794504
2009-02-11 00:50:55, 9502.53157785
2009-02-11 00:51:00, 9590.56689035
2009-02-11 00:51:05, 9678.60220284
2009-02-11 00:51:10, 9755.85946222
2009-02-11 00:51:15, 9767.5823564
2009-02-11 00:51:20, 9779.30525058
2009-02-11 00:51:25, 9786.28028404
2009-02-11 00:51:30, 9793.2553175
2009-02-11 00:51:35, 9800.23035095
2009-02-11 00:51:40, 9807.20538441
2009-02-11 00:51:45, 9801.59217333
2009-02-11 00:51:50, 9780.4629493
2009-02-11 00:51:55, 9759.33372526
2009-02-11 00:52:00, 9738.20450122
2009-02-11 00:52:05, 9699.84359751
2009-02-11 00:52:10, 9661.48269379
2009-02-11 00:52:15, 9640.35044847
2009-02-11 00:52:20, 9646.80105375
2009-02-11 00:52:25, 9624.13801773
2009-02-11 00:52:30, 9601.4749817
2009-02-11 00:52:35, 9578.81194568
2009-02-11 00:52:40, 9556.14890965
2009-02-11 00:52:45, 9533.48587363
2009-02-11 00:52:50, 9510.82283761
2009-02-11 00:52:55, 9488.15980158
2009-02-11 00:53:00, 9465.49676556
2009-02-11 00:53:05, 9442.83372953
2009-02-11 00:53:10, 9420.17069351
2009-02-11 00:53:15, 9397.50765749
2009-02-11 00:53:20, 9368.39401618
2009-02-11 00:53:25, 9386.99376831
2009-02-11 00:53:30, 9434.70716175
2009-02-11 00:53:35, 9482.42055518
2009-02-11 00:53:40, 9531.32463778
2009-02-11 00:53:45, 9580.22872038
2009-02-11 00:53:50, 9627.33649442
2009-02-11 00:53:55, 9665.68179898
2009-02-11 00:54:00, 9704.02710353
2009-02-11 00:54:05, 9742.37240809
2009-02-11 00:54:10, 9780.71771264
2009-02-11 00:54:15, 9819.0630172
2009-02-11 00:54:20, 9857.40832175
2009-02-11 00:54:25, 9895.75362631
2009-02-11 00:54:30, 9886.38553743
2009-02-11 00:54:35, 9877.01744855
2009-02-11 00:54:40, 9867.64935966
2009-02-11 00:54:45, 9857.09058162
2009-02-11 00:54:50, 9846.53180358
2009-02-11 00:54:55, 9867.1192479
2009-02-11 00:55:00, 9896.4691617
2009-02-11 00:55:05, 9925.8190755